Regional Weather Roundup
Issued by NWS Cleveland, OH

Home | Current Version | Previous Version | Text Only | Print | Product List | Glossary Off
Versions: 1 2 3 4 5 6 7 8 9 10 11 12 13 14 15 16 17 18 19 20 21 22 23 24 25 26 27 28 29 30 31 32 33 34 35 36 37 38 39 40 41 42 43 44 45 46 47 48 49 50

543
ASUS41 KCLE 260200
RWRCLE
OHIO REGIONAL WEATHER ROUNDUP
NATIONAL WEATHER SERVICE WILMINGTON, OH
1000 PM EDT FRI MAY 25 2018

NOTE: "FAIR" INDICATES FEW OR NO CLOUDS BELOW 12,000 FEET WITH NO
SIGNIFICANT WEATHER AND/OR OBSTRUCTIONS TO VISIBILITY.

OHZ001>008-015>018-024>027-034-035-043-044-260300-
   NORTHWEST OHIO

CITY           SKY/WX    TMP DP  RH WIND       PRES   REMARKS
DEFIANCE       FAIR      70  57  63 CALM      29.82S
FINDLAY        FAIR      73  52  47 S6        29.84R
TOLEDO EXPRESS FAIR      68  54  60 CALM      29.81F
TOLEDO EXEC    FAIR      73  51  46 S6        29.83R
LIMA           FAIR      74  52  46 S6        29.85S
$$

OHZ009>014-019>023-028>033-038-089-260300-
   NORTHEAST OHIO

CITY           SKY/WX    TMP DP  RH WIND       PRES   REMARKS
CLE-HOPKINS    FAIR      74  52  46 CALM      29.87R
CLE-LAKEFRONT  FAIR      75  57  53 CALM      29.84R
CUY CO. ARPT   CLEAR     68  57  68 CALM      29.87S
LORAIN-ELYRIA  FAIR      70  52  52 S3        29.86S
ASHTABULA      FAIR      63  57  81 CALM      29.88S
AKRON-CANTON   FAIR      73  49  42 CALM      29.89R
WOOSTER        FAIR      66  58  75 CALM      29.89R
MANSFIELD      FAIR      71  53  52 CALM      29.89R
YOUNGSTOWN     FAIR      66  56  70 S3        29.88S
$$

OHZ042-051>053-060>062-070>072-077>081-260300-
  SOUTHWEST OHIO

CITY           SKY/WX    TMP DP  RH WIND       PRES   REMARKS
CINC-COVINGTON MOCLDY    74  60  61 S5        29.87F
CINC-LUNKEN    FAIR      70  65  84 CALM      29.87F
HAMILTON       FAIR      68  62  81 CALM      29.87F
DAYTON         NOT AVBL
WRIGHT-PAT AFB FAIR      74  55  51 S5        29.87S
DAYTON GENERAL FAIR      76  55  48 S3        29.87F
WILMINGTON     FAIR      72  58  61 CALM      29.88F
$$

OHZ036-037-039>041-045>050-054>059-063>069-073>076-082>088-260300-
  CENTRAL AND SOUTHEAST OHIO

CITY           SKY/WX    TMP DP  RH WIND       PRES   REMARKS
COLUMBUS       FAIR      79  53  40 SW5       29.87R
OSU AIRPORT    FAIR      77  52  41 SW5       29.87R
BOLTON FIELD   NOT AVBL
RICKENBACK AFB NOT AVBL
NEWARK         FAIR      70  63  78 CALM      29.87R
MARION         FAIR      76  48  37 SW5       29.88R
LANCASTER      FAIR      70  62  76 CALM      29.88S
ZANESVILLE     FAIR      73  63  70 SE6       29.88R
NEW PHILLY     FAIR      70  61  73 SE3       29.88S
$$




USA.gov is the U.S. government's official web portal to all federal, state and local government web resources and services.